Location: Unspecified
(58.9933°N, 5.6375°E)
Time: 13:57:28
(UTC+01:00)

Cosmos 2058 - Visible Passes

Search period start: 30 October 2014 00:00
Search period end: 09 November 2014 00:00
Orbit: 571 x 592 km, 82.5° (Epoch: 29 October)

Date Brightness Start Highest point End Pass type
(mag) Time Alt. Az. Time Alt. Az. Time Alt. Az.
30 Oct 3.7 04:26:35 47° SE 04:27:08 51° E 04:31:17 10° NNE visible
30 Oct 3.8 06:03:00 23° W 06:04:29 29° WNW 06:08:13 10° N visible
31 Oct 6.0 02:56:24 12° ENE 02:56:24 12° ENE 02:57:59 10° NE visible
31 Oct 3.3 04:32:49 65° E 04:32:49 65° E 04:36:53 10° NNE visible
31 Oct 4.1 06:09:13 22° W 06:10:09 24° WNW 06:13:38 10° N visible
01 Nov 5.9 03:02:31 14° ENE 03:02:31 14° ENE 03:04:10 10° NE visible
01 Nov 3.3 04:38:56 59° NNE 04:38:56 59° NNE 04:42:27 10° NNE visible
01 Nov 4.3 06:15:20 19° WNW 06:15:51 20° NW 06:19:00 10° N visible
02 Nov 5.8 03:08:33 16° ENE 03:08:33 16° ENE 03:10:05 10° NE visible
02 Nov 3.7 04:44:57 45° N 04:44:57 45° N 04:47:59 10° NNE visible
02 Nov 4.6 06:21:21 16° WNW 06:21:33 16° NW 06:24:17 10° NNW visible
03 Nov 5.7 03:14:30 17° NE 03:14:30 17° NE 03:15:52 10° NNE visible
03 Nov 4.1 04:50:54 34° N 04:50:54 34° N 04:53:29 10° N visible
03 Nov 4.8 06:27:18 14° NW 06:27:18 14° NW 06:29:29 10° NNW visible
04 Nov 5.7 03:20:24 17° NE 03:20:24 17° NE 03:21:34 10° NNE visible
04 Nov 4.4 04:56:47 27° N 04:56:47 27° N 04:58:57 10° N visible
04 Nov 5.0 06:33:11 11° NW 06:33:11 11° NW 06:34:28 10° NNW visible
05 Nov 5.7 03:26:14 16° NNE 03:26:14 16° NNE 03:27:13 10° NNE visible
05 Nov 4.7 05:02:37 22° NNW 05:02:37 22° NNW 05:04:24 10° N visible
06 Nov 5.7 03:32:02 15° NNE 03:32:02 15° NNE 03:32:49 10° NNE visible
06 Nov 4.9 05:08:25 18° NNW 05:08:25 18° NNW 05:09:49 10° N visible
07 Nov 5.8 03:37:47 14° NNE 03:37:47 14° NNE 03:38:23 10° NNE visible
07 Nov 5.1 05:14:10 15° NNW 05:14:10 15° NNW 05:15:12 10° N visible
08 Nov 5.8 03:43:30 13° NNE 03:43:30 13° NNE 03:43:54 10° NNE visible
08 Nov 5.3 05:19:52 13° NNW 05:19:52 13° NNW 05:20:32 10° N visible
